Location: Fort Wayne
(41.1310°N, 85.1290°W)
Time: 01:14:47
(UTC-04:00)

Courier 1B Rocket - All Passes

Search period start: 30 April 2016 00:00
Search period end: 10 May 2016 00:00
Orbit: 920 x 1202 km, 28.2° (Epoch: 28 April)

Date Brightness Start Highest point End Pass type
(mag) Time Alt. Az. Time Alt. Az. Time Alt. Az.
30 Apr - 16:55:05 10° SSW 16:59:32 16° SSE 17:03:57 10° ESE daylight
30 Apr - 18:45:54 10° SW 18:52:16 28° S 18:58:28 10° ESE daylight
30 Apr - 20:38:43 10° WSW 20:45:09 29° S 20:51:18 10° SE daylight
30 Apr - 22:32:52 10° WSW 22:37:49 19° SSW 22:42:34 10° SSE visible
01 May - 15:56:07 10° S 15:58:42 12° SSE 16:01:16 10° SE daylight
01 May - 17:45:16 10° SW 17:51:19 25° SSE 17:57:17 10° ESE daylight
01 May - 19:37:36 10° WSW 19:44:12 31° S 19:50:35 10° ESE daylight
01 May - 21:31:13 10° WSW 21:37:00 24° SSW 21:42:33 10° SE visible
01 May - 23:28:31 10° SW 23:29:25 10° SSW 23:30:19 10° SSW visible
02 May - 16:44:56 10° SSW 16:50:24 21° SSE 16:55:52 10° ESE daylight
02 May - 18:36:37 10° SW 18:43:13 30° S 18:49:42 10° ESE daylight
02 May - 20:29:49 10° WSW 20:36:07 28° S 20:42:11 10° SE daylight
02 May - 22:24:44 10° WSW 22:28:42 15° SSW 22:32:33 10° S visible
03 May - 15:45:03 10° SSW 15:49:32 16° SSE 15:54:02 10° ESE daylight
03 May - 17:35:50 10° SW 17:42:15 28° S 17:48:38 10° ESE daylight
03 May - 19:28:35 10° WSW 19:35:11 30° S 19:41:35 10° SE daylight
03 May - 21:22:41 10° WSW 21:27:55 20° SSW 21:33:00 10° SSE visible
04 May - 14:46:13 10° S 14:48:43 12° SSE 14:51:14 10° SE daylight
04 May - 16:35:16 10° SW 16:41:17 25° SSE 16:47:22 10° ESE daylight
04 May - 18:27:31 10° WSW 18:34:11 31° S 18:40:47 10° ESE daylight
04 May - 20:21:04 10° WSW 20:27:03 24° SSW 20:32:52 10° SE daylight
04 May - 22:17:47 10° SW 22:19:33 11° SSW 22:21:17 10° SSW visible
05 May - 15:35:01 10° SSW 15:40:23 21° SSE 15:45:51 10° ESE daylight
05 May - 17:26:37 10° SW 17:33:12 31° S 17:39:48 10° ESE daylight
05 May - 19:19:43 10° WSW 19:26:07 28° S 19:32:25 10° SE daylight
05 May - 21:14:32 10° WSW 21:18:47 16° SSW 21:22:56 10° S visible
06 May - 14:35:15 10° S 14:39:33 16° SSE 14:43:56 10° ESE daylight
06 May - 16:25:54 10° SW 16:32:13 28° S 16:38:39 10° ESE daylight
06 May - 18:18:33 10° WSW 18:25:09 30° S 18:31:43 10° SE daylight
06 May - 20:12:33 10° WSW 20:17:57 20° SSW 20:23:15 10° SSE daylight
07 May - 13:36:37 10° S 13:38:47 11° SSE 13:40:58 10° SE daylight
07 May - 15:25:25 10° SW 15:31:17 25° SSE 15:37:18 10° ESE daylight
07 May - 17:17:34 10° WSW 17:24:09 31° S 17:30:49 10° ESE daylight
07 May - 19:11:01 10° WSW 19:17:03 25° SSW 19:23:01 10° SE daylight
07 May - 21:07:28 10° SW 21:09:36 11° SSW 21:11:43 10° SSW visible
08 May - 14:25:16 10° SSW 14:30:25 20° SSE 14:35:44 10° ESE daylight
08 May - 16:16:45 10° SW 16:23:10 30° S 16:29:46 10° ESE daylight
08 May - 18:09:45 10° WSW 18:16:05 28° S 18:22:29 10° SE daylight
08 May - 20:04:27 10° WSW 20:08:48 16° SSW 20:13:07 10° S daylight
09 May - 13:25:38 10° S 13:29:37 16° SSE 13:33:44 10° ESE daylight
09 May - 15:16:08 10° SW 15:22:13 28° S 15:28:33 10° ESE daylight
09 May - 17:08:40 10° WSW 17:15:07 30° S 17:21:42 10° SE daylight
09 May - 19:02:33 10° WSW 19:07:56 20° SSW 19:13:19 10° SSE daylight
